{"data":{"norad_id":59100,"epoch":"2026-09-22T21:59:21.249888Z","epoch_age_seconds":46476,"freshness":"FRESH","line1":"1 59100U 24043C   26265.91621817  .00003027  00000+0  17257-3 0  9990","line2":"2 59100  97.8533  52.4870 0003839 103.7667 256.3991 15.13589226126456","mean_motion":15.13589226,"eccentricity":0.0003839,"inclination_deg":97.8533,"raan_deg":52.487,"arg_perigee_deg":103.7667,"mean_anomaly_deg":256.3991,"bstar":0.00017257,"rev_number":12645,"period_min":95.138097924066,"perigee_km":522.61465957893,"apogee_km":527.91509153898,"semimajor_km":6903.401875559,"source":"CELESTRAK","updated_at":"2026-09-23T09:00:19.173220Z"}}